Вернуться в каталог

STARLINK-35713

АктивенСвязьVLEO
NORAD 66278·PAYLOAD·🇺🇸 United States

Запущен Oct 31, 2025 с Vandenberg Space Force Base

Loading…

Ближайшие Пролёты (ближайшие 24 часа)

TLE

СвежийSource: CelesTrak SupGP

Эпоха: Sep 15, 2026, 02:28 UTC

1 66278C 25247P   26258.10326389  .00011602  00000+0  34285-3 0  2586
2 66278  53.1594  26.9831 0001137  98.5251 106.1960 15.34379602    13

Отслеживайте STARLINK-35713 в реальном времени с AllMySat

Download on the App Store